EW8275 Weather Reports


Display with metric or nautical units.
time (UTC)temp
F
wind
direction
speed
MPH
gust
MPH
rain 1hr
in
rain 24hr
in
rain mn
in
humidity
%
barometer
mb
20260503191600 59 163 1.0 4.0 0.08 1.97 0.19 93 1009.8
20260503191047 59 207 1.0 5.0 0.08 1.97 0.19 92 1009.8
20260503190540 59 252 1.0 6.0 0.08 1.97 0.19 92 1009.7
20260503190035 59 223 2.0 6.0 0.12 1.97 0.19 92 1009.7
20260503185537 59 205 3.0 6.0 0.12 1.97 0.19 92 1009.7
20260503185050 59 184 2.0 6.0 0.12 1.97 0.19 92 1009.7
20260503184533 60 186 4.0 7.0 0.12 1.97 0.19 92 1009.7
20260503184037 60 182 3.0 7.0 0.08 1.93 0.18 92 1009.6
20260503183542 60 172 2.0 7.0 0.04 1.89 0.17 91 1009.6
20260503183030 60 154 3.0 7.0 0.04 1.89 0.17 91 1009.6
20260503182624 60 179 1.0 4.0 0.04 1.89 0.17 91 1009.5
20260503182051 60 166 2.0 4.0 0.04 1.89 0.17 91 1009.4
20260503181606 60 188 1.0 3.0 0.04 1.89 0.17 91 1009.3
20260503181055 60 164 2.0 3.0 0.04 1.89 0.17 91 1009.4
20260503180608 60 225 0.0 4.0 0.04 1.89 0.17 90 1009.4
20260503180032 60 225 1.0 5.0 0.00 1.85 0.17 90 1009.4
20260503175537 61 238 2.0 5.0 0.00 1.85 0.17 90 1009.4
20260503175031 61 188 2.0 4.0 0.00 1.85 0.17 90 1009.4
20260503174559 61 193 2.0 4.0 0.00 1.85 0.17 90 1009.4
20260503174038 61 243 1.0 3.0 0.00 1.85 0.17 90 1009.2
20260503173626 61 213 2.0 3.0 0.00 1.85 0.17 90 1009.1
20260503173041 61 210 2.0 3.0 0.00 1.85 0.17 90 1009.1
20260503172537 61 242 0.0 4.0 0.00 1.85 0.17 90 1009.0
20260503172055 61 174 2.0 4.0 0.00 1.85 0.17 91 1009.1
20260503171604 61 232 2.0 4.0 0.00 1.85 0.17 90 1009.0
20260503171031 61 194 1.0 6.0 0.00 1.85 0.17 90 1009.0
20260503170600 61 180 2.0 6.0 0.00 1.85 0.17 90 1009.0
20260503150532 59 188 2.0 6.0 0.08 1.85 0.17 93 1009.3
20260503131032 61 239 2.0 5.0 0.00 1.69 0.13 90 1009.7
20260503130551 61 151 2.0 6.0 0.00 1.69 0.13 90 1009.7
20260503120118 60 211 2.0 7.0 0.08 1.69 0.13 92 1009.9
20260503110548 60 252 1.0 4.0 0.12 1.61 0.12 94 1010.0
20260503081540 61 211 1.0 6.0 0.00 1.30 0.06 91 1009.7
20260503081050 61 190 2.0 5.0 0.00 1.30 0.06 91 1009.7
20260503080552 61 185 2.0 5.0 0.00 1.30 0.06 92 1009.7
20260503072547 60 178 1.0 5.0 0.00 1.30 0.06 94 1009.6
20260503072038 60 172 2.0 5.0 0.00 1.30 0.06 94 1009.6
20260503071551 60 211 2.0 5.0 0.00 1.30 0.06 94 1009.5
20260503071043 59 184 3.0 5.0 0.00 1.30 0.06 94 1009.3
20260503070536 59 155 1.0 5.0 0.00 1.30 0.06 94 1009.3
20260503055027 57 88 1.0 2.0 0.00 1.26 0.05 95 1009.6
20260503054534 57 157 0.0 2.0 0.00 1.26 0.05 95 1009.6
20260503054046 57 153 0.0 2.0 0.00 1.26 0.05 95 1009.6
20260503053557 57 171 1.0 3.0 0.00 1.26 0.05 95 1009.7
20260503053050 57 188 1.0 4.0 0.00 1.26 0.05 95 1009.8
20260503052547 57 182 1.0 4.0 0.00 1.26 0.05 95 1009.8
20260503052037 57 177 1.0 4.0 0.00 1.26 0.05 95 1009.8
20260503051537 57 169 1.0 4.0 0.00 1.26 0.05 95 1009.8
20260503051035 57 149 1.0 4.0 0.00 1.26 0.05 95 1009.9
20260503050534 57 165 1.0 2.0 0.00 1.26 0.05 95 1009.8
20260503050045 56 209 1.0 2.0 0.00 1.26 0.05 95 1009.9
20260503045532 56 173 0.0 1.0 0.00 1.26 0.05 95 1009.7
20260503045051 56 173 0.0 2.0 0.00 1.26 0.05 95 1009.7
20260503044607 56 173 1.0 3.0 0.00 1.26 0.05 95 1009.8
20260503044046 56 164 0.0 2.0 0.00 1.26 0.05 95 1009.8
20260503043546 56 164 0.0 3.0 0.00 1.26 0.05 94 1009.8
20260503043042 56 164 0.0 3.0 0.00 1.26 0.05 95 1009.8
20260503042544 56 164 1.0 2.0 0.00 1.26 0.05 95 1009.9
20260503042037 57 164 1.0 4.0 0.04 1.26 0.05 95 1009.8
20260503041544 57 195 2.0 4.0 0.04 1.26 0.05 94 1009.8
20260503041047 57 163 0.0 3.0 0.04 1.26 0.05 94 1009.8
20260503040548 57 160 0.0 3.0 0.08 1.26 0.05 94 1009.8
20260503040034 57 111 0.0 1.0 0.12 1.26 0.05 94 1009.8
20260503035602 57 109 0.0 1.0 0.16 1.26 0.05 94 1009.8
20260503035031 57 109 0.0 1.0 0.16 1.26 0.05 94 1009.8
20260503034542 57 168 0.0 2.0 0.16 1.26 0.05 95 1009.9
20260503034044 57 209 0.0 3.0 0.16 1.26 0.05 94 1009.9
20260503033535 57 188 1.0 3.0 0.16 1.26 0.05 94 1010.0
20260503033038 57 132 0.0 2.0 0.16 1.26 0.05 94 1009.8
20260503032535 57 115 1.0 2.0 0.20 1.26 0.05 94 1010.0
20260503032041 57 115 0.0 3.0 0.16 1.22 0.04 94 1010.2
20260503031531 57 93 2.0 3.0 0.16 1.22 0.04 94 1010.2
20260503031035 57 159 1.0 2.0 0.16 1.22 0.04 94 1010.4
20260503030609 57 146 1.0 3.0 0.12 1.18 0.03 94 1010.4
20260503030058 57 143 1.0 4.0 0.08 1.14 0.02 94 1010.5
20260503025535 57 140 2.0 3.0 0.04 1.10 0.02 94 1010.9
20260503025059 57 159 1.0 4.0 0.04 1.10 0.02 94 1010.8
20260503024545 57 144 1.0 4.0 0.04 1.10 0.02 94 1010.9
20260503024037 57 219 1.0 4.0 0.04 1.10 0.02 94 1011.0
20260503023559 57 151 1.0 4.0 0.04 1.10 0.02 94 1011.0
20260503023035 57 173 1.0 5.0 0.04 1.10 0.02 94 1011.1
20260503022556 57 215 3.0 7.0 0.00 1.06 0.01 94 1011.1
20260503022046 57 200 3.0 7.0 0.00 1.06 0.01 94 1011.1
20260503021548 57 199 3.0 6.0 0.00 1.06 0.01 94 1011.1
20260503021021 57 188 3.0 6.0 0.00 1.06 0.01 94 1011.1
20260503020544 57 242 3.0 5.0 0.00 1.06 0.01 94 1011.1
20260503020034 57 129 2.0 5.0 0.00 1.06 0.01 94 1010.9
20260503015559 57 153 2.0 5.0 0.00 1.06 0.01 94 1011.0
20260503015042 57 171 1.0 4.0 0.00 1.06 0.01 94 1011.0
20260503014539 57 161 2.0 4.0 0.00 1.06 0.01 94 1011.0
20260503014042 57 164 1.0 4.0 0.00 1.06 0.01 94 1011.1
20260503013538 57 192 1.0 4.0 0.00 1.06 0.01 94 1011.0
20260503013032 57 153 0.0 3.0 0.00 1.06 0.01 94 1011.0
20260503012531 57 154 0.0 2.0 0.00 1.06 0.01 94 1011.0
20260503012047 57 143 0.0 2.0 0.00 1.06 0.01 94 1010.9
20260503011546 57 153 1.0 2.0 0.00 1.06 0.01 94 1010.9
20260503011035 56 142 0.0 2.0 0.00 1.06 0.01 94 1010.8
20260503010545 56 142 0.0 2.0 0.00 1.06 0.01 94 1010.9
20260503010030 56 86 1.0 2.0 0.00 1.06 0.01 93 1010.9
20260503005613 56 128 1.0 2.0 0.00 1.06 0.01 93 1010.9
20260503005041 57 115 0.0 5.0 0.00 1.06 0.01 93 1011.0
20260503004622 56 100 0.0 5.0 0.00 1.06 0.01 93 1011.0
20260503004047 56 189 1.0 3.0 0.00 1.06 0.01 93 1011.0
20260503003537 57 86 1.0 2.0 0.00 1.06 0.01 93 1011.1
20260503003025 57 71 0.0 2.0 0.00 1.06 0.01 93 1011.1
20260503002536 57 71 1.0 3.0 0.00 1.06 0.01 93 1011.1
20260503002056 57 117 1.0 2.0 0.00 1.06 0.01 93 1011.1
20260503001532 57 204 1.0 2.0 0.00 1.06 0.01 94 1011.2
20260503001029 57 151 1.0 3.0 0.00 1.06 0.01 93 1011.1
20260503000544 57 88 0.0 3.0 0.00 1.06 0.01 93 1011.2
20260503000039 57 76 1.0 3.0 0.00 1.06 0.01 93 1011.2
20260502235601 57 90 1.0 5.0 0.00 1.06 0.01 93 1011.3
20260502235049 57 103 1.0 3.0 0.00 1.06 0.01 93 1011.4
20260502234543 57 98 2.0 3.0 0.00 1.06 0.01 93 1011.5
20260502234027 57 83 1.0 3.0 0.00 1.06 0.01 93 1011.7
20260502233537 57 94 1.0 3.0 0.00 1.06 0.01 93 1011.8
20260502233024 57 124 1.0 2.0 0.00 1.06 0.01 93 1011.8
20260502232534 57 130 0.0 3.0 0.00 1.06 0.01 93 1011.8
20260502232052 57 94 1.0 3.0 0.00 1.06 0.01 93 1011.8
20260502231550 57 124 1.0 3.0 0.00 1.06 0.01 93 1011.8
20260502231104 57 104 1.0 3.0 0.00 1.06 0.01 93 1011.8
20260502230601 57 90 1.0 3.0 0.00 1.06 0.01 93 1011.8
20260502230054 57 101 1.0 3.0 0.04 1.06 0.01 93 1011.8
20260502225546 57 93 2.0 5.0 0.08 1.06 0.01 93 1011.9
20260502225104 57 62 2.0 5.0 0.16 1.06 0.01 93 1011.9
20260502224551 57 49 1.0 3.0 0.28 1.06 0.01 93 1012.0
20260502224048 57 129 0.0 3.0 0.35 1.06 0.01 92 1012.1
20260502223533 57 140 1.0 3.0 0.39 1.06 0.01 92 1012.1
20260502223103 57 192 0.0 2.0 0.47 1.06 0.01 92 1012.1
20260502222530 56 192 0.0 2.0 0.55 1.06 0.01 92 1012.0
20260502222052 56 115 1.0 3.0 0.63 1.06 0.01 92 1011.9
20260502221549 56 86 1.0 6.0 0.83 1.06 0.01 91 1012.1
20260502221035 57 50 3.0 8.0 0.94 1.06 0.01 91 1012.1
20260502220541 57 92 2.0 9.0 1.02 1.06 0.01 91 1012.2
20260502220037 57 19 4.0 9.0 1.02 1.02 0.00 91 1012.0
20260502215547 57 70 3.0 7.0 0.98 0.98 0.20 91 1012.2
20260502215043 57 115 4.0 9.0 0.91 0.91 0.18 90 1012.4
20260502214538 57 68 3.0 9.0 0.79 0.79 0.16 90 1012.4
20260502214028 58 60 3.0 7.0 0.71 0.71 0.14 89 1012.7
20260502213602 58 94 3.0 7.0 0.63 0.63 0.13 89 1013.1
20260502213031 58 97 2.0 4.0 0.55 0.55 0.11 88 1013.3
20260502212541 58 78 2.0 3.0 0.51 0.51 0.10 87 1013.5
20260502212059 59 38 1.0 3.0 0.43 0.43 0.09 85 1013.9
20260502211554 59 94 2.0 7.0 0.20 0.20 0.04 81 1014.1
20260502211041 60 186 3.0 7.0 0.08 0.08 0.02 77 1014.3
20260502210538 61 227 3.0 27.0 0.04 0.04 0.01 72 1014.2
20260502210026 61 222 10.0 27.0 0.00 0.00 0.00 69 1014.4
20260502205555 61 180 5.0 9.0 0.00 0.00 0.00 66 1013.9
20260502205022 61 23 4.0 10.0 0.00 0.00 0.00 65 1012.5
20260502204546 61 326 2.0 7.0 0.00 0.00 0.00 65 1012.5
20260502204058 61 37 3.0 7.0 0.00 0.00 0.00 65 1012.5
20260502203544 61 76 2.0 6.0 0.00 0.00 0.00 65 1012.6
20260502203028 61 5 2.0 8.0 0.00 0.00 0.00 65 1012.6
20260502202612 61 55 3.0 8.0 0.00 0.00 0.00 64 1012.7
20260502202027 61 83 2.0 4.0 0.00 0.00 0.00 64 1012.8
20260502201557 61 67 2.0 4.0 0.00 0.00 0.00 64 1012.8
20260502201037 60 40 2.0 5.0 0.00 0.00 0.00 67 1012.8
20260502200529 60 28 2.0 5.0 0.00 0.00 0.00 68 1012.9
20260502200044 60 26 2.0 3.0 0.00 0.00 0.00 68 1013.0
20260502195544 60 360 1.0 3.0 0.00 0.00 0.00 68 1013.0
20260502195033 60 9 1.0 2.0 0.00 0.00 0.00 68 1013.0
20260502194534 60 9 1.0 2.0 0.00 0.00 0.00 67 1013.0
20260502194052 60 9 0.0 1.0 0.00 0.00 0.00 67 1013.0
20260502193545 60 9 0.0 1.0 0.00 0.00 0.00 67 1013.1
20260502193033 60 9 0.0 2.0 0.00 0.00 0.00 66 1013.1
20260502192556 61 9 1.0 2.0 0.00 0.00 0.00 65 1013.1
20260502192035 61 9 1.0 2.0 0.00 0.00 0.00 65 1013.1